SCP
0 0 0 0 0 0 0 0 0 0 0 0 0 0 0 0 0 0 0 0 0 0 0 0 0 0 0 0 0 0 0 0 0 0 0 0 0 0
0 0 0 0 0 0 0 0 0 0 0 0 0 0 0 0 0 0 0 0 0 0 0 0 0 0 0 0 0 0 0 0 0 0 0 0 0 0
0 0 0 0 0 0 0 0 0 0 0 0 0 0 0 0 0 0 0 0 0 0 0 0 0 0 0 0 0 0 0 0 0 0 0 0 0 0
0 0 0 0 0 0 0 0 0 0 0 0 0 0 0 0 0 0 0 0 0 0 0 0 0 0 0 0 0 0 0 0 0 0 0 0 0 0
0 0 0 0 0 0 0 0 0 0 0 0 0 0 0 0 0 0 0 0 0 0 0 0 0 0 0 0 0 0 0 0 0 0 0 0 0 0
0 0 0 0 0 0 0 0 0 0 0 0 0 0 0 0 0 0 0 0 0 0 0 0 0 0 0 0 0 0 0 0 0 0 0 1 0 0
0 0 0 0 0 0 0 0 0 0 0 0 0 0 0 0 0 0 0 0 0 0 0 0 0 0 0 0 0 0 0 0 0 0 0 0 0 0
0 0 0 0 0 0 0 0 0 0 0 0 0 0 0 0 0 0 0 0 0 0 0 0 0 0 0 0 0 0 0 0 0 0 0 0 0 0
0 0 0 0 0 0 0 0 0 0 0 0 0 0 0 0 0 0 0 0 0 0 0 0 0 0 0 0 0 0 0 0 0 0 0 0 0 0
0 0 0 0 0 0 0 0 0 0 0 0 0 0 0 0 0 0 0 0 0 0 0 0 0 0 0 0 0 0 0 0 0 0 0 0 0 0
0 0 0 0 0 0 0 0 0 0 0 0 0 0 0 0 0 0 0 0 0 0 0 0 0 0 0 0 0 0 0 0 0 0 0 0 0 0
0 0 0 0 0 0 0 0 0 0 0 0 0 0 0 0 0 0 0 0 0 0 0 0 0 0 0 0 0 0 0 0 0 0 0 0 0 0
0 0 0 0 0 0 0 0 0 0 0 0 0 0 0 0 0 0 0 0 0 0 0 0 0 0 0 0 0 0 0 0 0 0 0 0 0 0
0 0 0 0 0 0 0 0 0 0 0 0 0 0 0 0 0 0 0 0 0 0 0 0 0 0 0 0 0 0 0 0 0 0 0 0 0 0
0 0 0 0 0 0 0 0 0 0 0 0 0 0 0 0 0 0 0 0 0 0 0 0 0 0 0 0 0 0 0 0 0 0 0 0 0 0
0 0 0 0 0 0 0 0 0 0 0 0 0 0 0 0 0 0 0 0 0 0 0 0 0 0 0 0 0 0 0 0 0 0 0 0 0 0
0 0 0 0 0 0 0 0 0 0 0 0 0 0 0 0 0 0 0 0 0 0 0 0 0 0 0 0 0 0 0 0 0 0 0 0 0 0
0 0 0 0 0 0 0 0 0 0 0 0 0 0 0 0 0 0 0 0 0 0 0 0 0 0 0 0 0 0 0 0 0 0 0 0 0 0
0 0 0 0 0 0 0 0 0 0 0 0 0 0 0 0 0 0 0 0 0 0 0 0 0 0 0 0 0 0 0 0 0 0 0 0 0 0
0 0 0 0 0 0 0 0 0 0 0 0 0 0 0 0 0 0 0 0 0 0 0 0 0 0 0 0 0 0 0 0 0 0 0 0 0 0
0 0 0 0 0 0 0 0 0 0 0 0 0 0 0 0 0 0 0 0 0 0 0 0 0 0 0 0 0 0 0 0 0 0 0 0 0 0
0 0 0 0 0 0 0 0 0 0 0 0 0 0 0 0 0 0 0 0 0 0 0 0 0 0 0 0 0 0 0 0 0 0 0 0 0 0
0 0 0 0 0 0 0 0 0 0 0 0 0 0 0 0 0 0 0 0 0 0 0 0 0 0 0 0 0 0 0 0 0 0 0 0 0 0
Wind_Speed
2 2 1 1 1 1 2 3 4 2 2 2 1 1 1 1 1 1 1 3 4 4 4 4 4 4 5 5 5 6 6 6 7 8 8 9 9 9
1 2 1 1 1 1 2 2 2 3 3 2 2 2 2 1 2 1 2 4 4 4 5 5 5 5 5 6 6 7 7 7 8 9 9 10 10 10
1 2 1 1 1 1 1 1 2 2 3 2 1 1 1 2 2 2 2 2 2 5 5 6 6 6 6 6 7 7 7 8 8 9 10 10 10 10
2 1 1 1 1 1 1 2 2 2 3 3 2 1 2 2 2 2 2 2 2 5 6 6 7 7 6 6 7 7 7 8 8 9 10 10 11 11
2 2 1 2 2 1 2 2 2 1 2 2 2 1 1 1 1 2 2 2 3 4 5 6 7 7 7 7 7 8 7 8 9 9 10 10 10 11
1 1 1 2 2 2 2 2 2 2 2 1 1 1 1 1 1 1 2 2 3 3 4 5 6 7 8 8 8 8 8 8 9 9 10 10 10 10
1 1 0 1 1 2 2 2 2 2 2 2 1 1 1 1 2 2 3 3 3 3 3 3 3 3 4 7 8 8 9 9 9 10 10 10 10 10
1 0 0 0 0 0 1 2 3 3 3 3 2 3 3 3 2 2 2 3 4 2 2 4 2 4 4 4 8 10 9 9 10 10 11 10 10 10
2 1 1 0 0 0 0 1 2 3 4 4 4 5 4 4 3 3 3 4 5 3 2 5 3 5 4 5 10 10 10 10 10 11 11 10 10 10
2 2 2 1 2 1 1 1 1 2 3 3 4 5 4 3 4 4 4 3 3 2 2 4 4 5 5 4 9 10 10 10 10 10 11 11 10 10
1 2 2 2 3 2 1 1 2 3 3 3 4 5 5 5 4 1 2 2 4 3 2 3 3 4 4 4 6 9 10 10 11 11 11 11 10 9
1 2 3 3 3 3 2 2 3 3 2 2 3 4 3 3 4 3 3 3 4 4 2 2 2 2 4 3 3 4 5 9 12 12 12 11 10 6
2 2 2 4 4 4 4 3 4 4 2 2 2 2 2 2 2 3 3 3 4 5 3 2 3 2 4 5 4 4 4 4 5 7 10 11 11 8
3 2 3 4 4 5 4 4 5 3 1 1 2 2 2 2 2 2 3 4 4 6 5 4 3 4 4 6 6 4 3 4 4 5 5 8 9 10
2 4 4 4 4 3 4 5 3 2 1 2 2 3 2 2 2 2 3 3 4 5 4 5 5 4 4 6 6 5 5 4 4 4 4 5 5 4
2 3 3 3 2 3 3 2 2 2 2 3 3 2 2 2 2 2 2 3 3 4 3 4 5 5 5 6 6 7 6 4 4 5 5 5 5 4
1 1 1 1 1 2 2 2 1 1 2 2 2 2 2 2 3 2 2 2 3 4 5 3 3 4 6 6 7 7 6 6 5 5 5 6 6 5
2 2 2 2 3 3 3 2 2 2 2 2 2 3 3 3 3 3 2 3 4 5 5 4 4 4 4 4 8 7 6 5 5 5 4 6 7 5
2 3 3 3 3 3 3 3 3 3 2 3 3 3 3 3 3 3 3 3 4 5 5 4 3 4 6 7 5 5 5 5 4 5 5 5 7 6
2 3 3 3 3 3 3 3 3 3 3 3 3 3 3 3 3 4 4 4 5 5 5 4 4 4 6 7 6 5 6 6 5 6 5 5 5 7
3 3 3 3 3 3 3 4 4 4 3 3 3 4 3 3 4 4 4 6 6 5 6 6 5 7 5 3 5 5 4 5 6 5 5 4 5 5
3 3 3 3 3 3 4 4 4 4 4 4 4 4 4 4 5 5 5 5 5 5 6 6 5 4 3 5 7 7 6 5 5 7 8 8 5 4
3 3 3 3 4 4 4 4 5 4 4 4 4 4 4 4 4 5 5 5 5 5 6 6 4 4 4 5 6 6 7 6 4 5 5 6 9 11
Wind_Direction
143 147 165 185 170 167 158 161 163 190 241 242 246 257 261 252 284 290 297 318 324 319 318 322 322 322 312 306 306 303 301 299 301 300 299 300 299 301
136 137 138 154 164 166 173 179 173 178 217 222 229 251 258 275 289 287 283 314 313 311 310 307 305 304 303 304 303 301 300 299 298 296 296 296 297 298
124 148 161 150 138 144 165 176 174 168 210 250 245 248 234 253 288 294 292 289 294 304 303 298 294 294 293 294 296 296 296 296 296 295 295 296 295 293
149 147 170 153 147 159 170 186 188 183 192 222 240 241 247 240 253 275 295 298 288 296 297 296 290 289 291 294 295 293 292 291 291 292 294 295 295 294
161 163 194 172 180 187 186 197 194 187 190 197 234 239 259 250 267 287 286 284 289 295 292 293 291 289 287 288 291 293 292 290 288 289 292 295 296 295
137 156 188 197 205 202 198 200 183 170 167 176 235 255 265 268 232 264 289 285 288 295 288 294 296 294 290 290 292 290 288 288 287 288 290 292 293 293
100 111 169 202 209 212 204 198 187 183 179 184 224 246 257 252 251 250 275 288 282 271 280 289 289 285 284 288 289 285 283 284 286 289 289 290 291 291
149 191 307 246 149 240 219 218 215 206 206 206 219 231 244 243 247 255 271 291 284 269 277 287 281 277 275 270 282 285 283 283 286 288 287 286 286 286
179 194 246 279 326 179 297 295 250 246 233 221 223 231 233 229 225 247 251 257 266 270 278 281 278 276 276 281 286 281 282 283 284 285 284 283 280 279
187 196 205 230 233 222 213 249 262 260 251 234 227 236 239 232 225 237 245 267 274 262 240 271 278 278 285 278 279 276 278 281 283 284 284 281 279 279
212 205 205 220 248 251 222 242 279 287 300 283 277 273 272 269 266 252 249 270 283 275 238 247 269 289 286 274 272 274 278 282 284 284 283 282 279 281
237 238 234 237 249 247 224 217 253 270 275 301 304 298 284 266 265 243 225 248 277 276 232 229 267 302 293 266 261 268 273 280 283 282 283 283 282 276
218 242 246 247 251 257 258 235 248 271 260 251 272 283 282 267 258 253 241 233 254 264 246 241 269 269 267 289 288 266 258 268 276 276 279 281 278 273
220 231 239 245 252 259 263 263 272 287 269 270 271 273 271 268 268 267 264 260 255 257 251 240 253 253 268 281 285 285 273 264 265 269 269 279 278 278
228 232 241 246 254 257 267 273 276 260 249 254 259 264 257 259 274 288 291 286 284 273 259 248 244 248 249 264 275 281 289 280 256 256 266 268 266 266
246 241 251 249 262 270 276 270 253 240 243 243 255 260 263 264 268 271 280 295 297 295 281 260 248 245 261 265 265 273 269 265 268 270 271 272 266 255
229 237 239 239 248 255 258 256 250 247 249 245 249 265 272 277 279 275 271 280 279 287 295 294 273 260 256 260 266 263 264 265 262 266 274 276 269 255
237 221 230 232 238 242 247 258 256 248 248 245 243 248 261 271 279 280 274 273 279 282 283 288 300 307 298 269 240 252 260 262 268 265 264 271 278 269
224 224 234 235 239 239 238 245 254 251 242 240 247 249 253 260 267 272 273 276 279 281 280 279 280 287 293 293 275 231 248 272 277 272 264 265 272 274
221 226 234 235 234 236 239 244 250 247 240 240 243 246 245 252 261 265 264 267 278 284 283 275 262 261 269 278 283 280 255 256 266 275 282 283 279 277
232 236 238 236 236 235 238 240 241 243 241 240 245 247 247 250 258 261 264 270 277 275 276 278 271 275 278 278 281 282 278 260 259 266 275 284 291 287
237 241 244 241 238 236 237 238 242 244 243 243 246 245 246 248 254 259 262 266 269 270 276 282 282 280 267 268 277 283 291 298 290 276 267 260 264 265
244 244 243 241 239 239 238 239 241 244 241 241 243 243 244 249 252 255 259 263 268 273 281 286 287 277 270 269 275 280 283 291 299 305 296 285 278 275